Find OneWeb SL0267

NORAD ID: 48985 Int'l Des: 2021-060 Owner: ONEWEBN Country: UK Constellation: oneweb operational
LEOCIRCULARPOLARONEWEB_TYPE

Live Position

Loading 3D Globe...

About OneWeb SL0267

Description loading...

Upcoming Passes

Passes for default location (London). Set your location on the main map for personalized predictions.

Altitude History

Loading altitude history...

Two-Line Element Set

1 48985U 21060U 26132.80215874 -.00000038 00000-0 -13322-3 0 9999
2 48985 87.9102 235.7967 0001930 95.0527 265.0824 13.16595557234938
Epoch: May 12, 2026 • Age: 8 hours

Current Status

Altitude 1212.1 km
Velocity 7.25 km/s
Sub-Earth Point -35.83°S, 131.73°E
Launch Date Jul 1, 2021
Age 4.8 years
Type internet

Technical Details

Classification Payload
Mass 148.00 kg
Dry Mass 140.00 kg
Total Mass 148.00 kg
Length 1.30 m
Diameter 1.00 m
Span 5.00 m
Shape Trapezoid+2 pan
Manufacturer ONEWUS
Bus Type ARROW
Phase Status In Orbit
Owner/State ONEWEBN/UK

Most Searched